Date Time,Air Temp,Sky Temp,Clarity,Light Level,Rain Sensor,Readings
2016-06-30 00:00:04,19.6,8.1,11.5,0.0,2.7,111
2016-06-30 00:05:04,19.6,8.8,10.8,0.0,2.8,111
2016-06-30 00:10:04,19.6,8.8,10.8,0.0,2.9,112
2016-06-30 00:15:04,19.3,8.9,10.4,0.0,2.7,111
2016-06-30 00:20:04,19.6,8.5,11.2,0.0,3.9,111
2016-06-30 00:25:04,19.7,9.7,9.9,0.0,4.0,112
2016-06-30 00:30:04,19.6,9.5,10.2,0.0,3.6,112
2016-06-30 00:35:04,19.6,9.9,9.7,0.0,2.9,111
2016-06-30 00:40:04,19.6,10.5,9.1,0.0,2.8,112
2016-06-30 00:45:04,19.7,10.2,9.4,0.0,2.7,111
2016-06-30 00:50:04,19.7,9.5,10.1,0.0,2.7,112
2016-06-30 00:55:04,19.7,8.9,10.9,0.0,2.7,111
2016-06-30 01:00:04,19.7,8.8,10.9,0.0,2.7,111
2016-06-30 01:05:04,19.8,8.8,11.0,0.0,2.7,112
2016-06-30 01:10:04,19.8,8.9,10.9,0.0,2.7,111
2016-06-30 01:15:04,19.8,8.9,10.9,0.0,3.0,112
2016-06-30 01:20:04,19.7,9.5,10.2,0.0,2.9,112
2016-06-30 01:25:04,19.7,10.0,9.7,0.0,2.7,111
2016-06-30 01:30:04,19.6,9.5,10.1,0.0,2.8,112
2016-06-30 01:35:04,19.6,8.8,10.7,0.0,4.4,111
2016-06-30 01:40:04,19.5,9.1,10.4,0.0,4.0,112
2016-06-30 01:45:04,19.4,9.4,10.1,0.0,3.6,111
2016-06-30 01:50:04,19.4,9.7,9.7,0.0,8.9,111
2016-06-30 01:55:04,19.5,11.8,7.7,0.0,14.0,112
2016-06-30 02:00:04,19.6,12.8,6.7,0.0,10.7,111
2016-06-30 02:05:04,19.6,13.7,5.9,0.0,14.3,111
2016-06-30 02:10:04,19.7,12.7,7.1,0.0,12.1,112
2016-06-30 02:15:04,19.7,12.6,7.1,0.0,9.3,111
2016-06-30 02:20:04,19.7,13.1,6.6,0.0,15.3,111
2016-06-30 02:25:04,19.8,13.1,6.7,0.0,13.3,112
2016-06-30 02:30:04,19.7,12.4,7.3,0.0,13.9,111
2016-06-30 02:35:04,19.8,12.8,6.9,0.0,12.9,112
2016-06-30 02:40:04,19.7,12.7,7.0,0.0,7.4,111
2016-06-30 02:45:04,19.6,12.6,7.0,0.0,12.9,111
2016-06-30 02:50:04,19.7,13.0,6.8,0.0,15.0,112
2016-06-30 02:55:04,19.7,12.1,7.5,0.0,7.2,111
2016-06-30 03:00:04,19.5,12.2,7.4,0.0,4.9,111
2016-06-30 03:05:04,19.4,12.8,6.6,0.0,7.0,112
2016-06-30 03:10:04,19.5,11.6,7.8,0.0,11.2,111
2016-06-30 03:15:04,19.5,11.7,7.9,0.0,18.0,112
2016-06-30 03:20:04,19.6,12.0,7.6,0.1,14.3,111
2016-06-30 03:25:04,19.6,12.2,7.4,0.1,17.9,112
2016-06-30 03:30:04,19.6,12.1,7.5,0.1,19.7,110
2016-06-30 03:35:04,19.6,12.6,7.0,0.1,14.1,112
2016-06-30 03:40:04,19.8,12.4,7.4,0.2,15.3,111
2016-06-30 03:45:04,19.5,12.4,7.1,0.3,19.5,111
2016-06-30 03:50:04,19.5,12.3,7.3,0.4,14.5,111
2016-06-30 03:55:04,19.5,11.9,7.6,0.7,12.7,112
2016-06-30 04:00:04,19.5,11.9,7.6,1.0,18.3,111
2016-06-30 04:05:04,19.5,12.0,7.4,1.4,17.0,111
2016-06-30 04:10:04,19.5,12.3,7.3,2.6,22.0,112
2016-06-30 04:15:04,19.6,12.4,7.2,3.6,27.1,111
2016-06-30 04:20:04,19.6,12.2,7.4,6.1,21.9,112
2016-06-30 04:25:04,19.6,11.9,7.7,8.6,23.9,111
2016-06-30 04:30:04,19.7,12.2,7.4,12.1,13.9,112
2016-06-30 04:35:04,19.6,12.5,7.2,14.7,22.3,111
2016-06-30 04:40:04,19.6,11.8,7.8,19.0,26.6,111
2016-06-30 04:45:04,19.6,11.8,7.8,22.4,29.5,111
2016-06-30 04:50:04,19.6,12.5,7.1,25.6,15.4,112
2016-06-30 04:55:04,19.6,12.5,7.1,27.5,15.1,111
2016-06-30 05:00:04,19.6,12.5,7.1,27.8,11.7,112
2016-06-30 05:05:04,19.6,13.0,6.6,28.2,4.3,111
2016-06-30 05:10:04,19.1,12.8,6.3,29.2,2.7,112
2016-06-30 05:15:04,19.4,12.8,6.6,29.0,6.0,111
2016-06-30 05:20:04,19.4,12.7,6.6,29.8,23.8,111
2016-06-30 05:25:04,19.6,12.6,7.0,30.3,31.7,112
2016-06-30 05:30:04,19.7,13.0,6.7,30.6,22.4,111
2016-06-30 05:35:04,19.9,13.7,6.2,30.9,14.3,111
2016-06-30 05:40:04,19.8,13.4,6.4,31.2,14.4,111
2016-06-30 05:45:04,19.8,15.7,4.2,31.5,8.9,111
2016-06-30 05:50:04,19.8,13.9,5.9,31.6,3.0,111
2016-06-30 05:55:04,19.7,14.5,5.2,31.9,2.2,112
2016-06-30 06:00:04,19.7,14.3,5.4,32.0,2.2,111
2016-06-30 06:05:03,19.7,11.8,7.9,32.0,2.1,72
2016-06-30 06:10:03,19.8,10.7,9.1,32.1,2.3,112
2016-06-30 06:15:03,20.0,10.1,9.8,32.1,2.3,111
2016-06-30 06:20:03,19.7,10.1,9.6,32.2,2.3,112
2016-06-30 06:25:03,20.2,8.7,11.5,32.3,2.3,112
2016-06-30 06:30:03,20.2,2.8,17.5,32.3,2.5,111
2016-06-30 06:35:03,21.9,-0.0,21.9,32.2,2.4,112
2016-06-30 06:40:03,24.3,0.4,23.9,32.3,2.3,112
2016-06-30 06:45:03,25.1,2.4,22.7,32.3,2.4,110
2016-06-30 06:50:03,25.8,1.1,24.7,32.3,2.3,112
2016-06-30 06:55:03,26.2,-0.1,26.3,32.3,2.3,112
2016-06-30 07:00:03,26.3,-1.7,28.0,32.3,2.3,111
2016-06-30 07:05:03,25.8,-4.0,29.8,32.3,2.3,112
2016-06-30 07:10:03,26.1,-3.1,29.1,32.3,2.3,112
2016-06-30 07:15:03,26.0,4.5,21.5,32.4,2.3,111
2016-06-30 07:20:03,25.4,2.0,23.4,32.4,2.3,112
2016-06-30 07:25:03,26.9,-2.4,29.3,32.3,2.3,111
2016-06-30 07:30:03,26.9,-3.7,30.6,32.3,2.3,112
2016-06-30 07:35:03,26.8,-0.6,27.5,32.3,2.3,112
2016-06-30 07:40:03,26.8,5.0,21.9,32.4,2.3,111
2016-06-30 07:45:03,27.1,-0.8,27.9,32.4,2.2,112
2016-06-30 07:50:03,27.0,2.7,24.3,32.4,2.3,111
2016-06-30 07:55:03,25.2,9.3,15.9,32.5,2.3,112
2016-06-30 08:00:03,24.0,9.8,14.2,32.4,2.3,111
2016-06-30 08:05:03,23.4,8.0,15.4,32.4,2.3,112
2016-06-30 08:10:03,22.7,3.9,18.9,32.5,2.3,112
2016-06-30 08:15:03,22.9,9.2,13.7,32.5,2.3,112
2016-06-30 08:20:03,23.0,11.7,11.3,32.4,2.3,111
2016-06-30 08:25:03,22.8,8.8,14.0,32.5,2.3,111
2016-06-30 08:30:03,22.5,10.6,11.9,32.4,2.3,111
2016-06-30 08:35:03,22.1,7.7,14.5,32.4,2.2,112
2016-06-30 08:40:03,21.9,10.3,11.5,32.5,2.3,111
2016-06-30 08:45:03,21.8,8.1,13.7,32.5,2.3,112
2016-06-30 08:50:03,22.6,7.2,15.5,32.5,2.3,111
2016-06-30 08:55:03,23.2,10.7,12.5,32.5,2.3,111
2016-06-30 09:00:03,23.6,11.7,11.9,32.5,2.3,112
2016-06-30 09:05:03,23.8,10.0,13.8,32.5,2.3,111
2016-06-30 09:10:03,23.7,9.2,14.5,32.5,2.3,112
2016-06-30 09:15:03,23.9,10.9,13.0,32.5,2.3,111
2016-06-30 09:20:03,24.2,9.5,14.7,32.5,2.3,112
2016-06-30 09:25:03,24.1,9.9,14.3,32.5,2.3,111
2016-06-30 09:30:03,24.0,10.4,13.6,32.5,2.3,111
2016-06-30 09:35:03,23.8,11.1,12.7,32.5,2.3,112
2016-06-30 09:40:03,23.8,11.4,12.3,32.5,2.3,111
2016-06-30 09:45:03,23.7,10.6,13.1,32.5,2.3,112
2016-06-30 09:50:03,23.7,9.8,13.9,32.5,2.3,111
2016-06-30 09:55:03,23.8,10.0,13.8,32.5,2.3,112
2016-06-30 10:00:03,23.7,10.6,13.1,32.5,2.3,111
2016-06-30 10:05:03,23.7,10.3,13.4,32.5,2.3,112
2016-06-30 10:10:03,23.4,9.1,14.3,32.5,2.3,111
2016-06-30 10:15:03,23.4,10.7,12.7,32.5,2.3,111
2016-06-30 10:20:03,23.5,12.4,11.1,32.5,2.3,112
2016-06-30 10:25:03,23.4,11.6,11.8,32.5,2.3,111
2016-06-30 10:30:03,23.0,11.4,11.7,32.3,2.3,111
2016-06-30 10:35:03,22.6,11.3,11.3,32.4,2.3,112
2016-06-30 10:40:03,22.3,11.8,10.5,32.5,2.3,111
2016-06-30 10:45:03,22.6,11.8,10.8,32.6,2.3,112
2016-06-30 10:50:03,23.3,11.8,11.5,32.6,2.3,111
2016-06-30 10:55:03,23.8,10.7,13.2,32.6,2.3,111
2016-06-30 11:00:03,24.0,10.3,13.7,32.5,2.3,112
2016-06-30 11:05:03,24.1,10.1,14.0,32.6,2.3,111
2016-06-30 11:10:03,24.6,8.1,16.5,32.5,2.2,112
2016-06-30 11:15:03,24.4,12.0,12.4,32.5,2.2,111
2016-06-30 11:20:03,24.5,11.7,12.8,32.6,2.2,112
2016-06-30 11:25:03,24.9,11.7,13.2,32.6,2.3,111
2016-06-30 11:30:03,25.3,11.8,13.5,32.6,2.4,112
2016-06-30 11:35:03,26.1,8.2,17.9,32.6,2.3,112
2016-06-30 11:40:03,27.1,9.9,17.2,32.6,2.3,111
2016-06-30 11:45:03,26.8,10.1,16.7,32.6,2.3,112
2016-06-30 11:50:03,26.7,12.2,14.5,32.6,2.3,111
2016-06-30 11:55:03,26.4,12.5,13.9,32.6,2.3,112
2016-06-30 12:00:03,26.2,12.5,13.8,32.6,2.3,111
2016-06-30 12:05:03,26.1,11.5,14.6,32.6,2.3,111
2016-06-30 12:10:03,26.1,11.5,14.6,32.6,2.3,112
2016-06-30 12:15:03,26.4,10.3,16.1,32.6,2.3,111
2016-06-30 12:20:03,26.5,11.9,14.7,32.6,2.3,111
2016-06-30 12:25:03,26.5,11.2,15.3,32.6,2.3,112
2016-06-30 12:30:03,26.4,11.5,14.9,32.6,2.3,111
2016-06-30 12:35:03,27.1,9.0,18.1,32.6,2.3,112
2016-06-30 12:40:03,27.1,11.3,15.8,32.6,2.3,111
2016-06-30 12:45:03,27.6,14.2,13.4,32.6,2.3,112
2016-06-30 12:50:03,27.7,11.6,16.2,32.6,2.3,111
2016-06-30 12:55:03,27.4,10.1,17.3,32.6,2.3,112
2016-06-30 13:00:03,27.2,12.5,14.7,32.6,2.3,111
2016-06-30 13:05:03,27.3,13.2,14.1,32.6,2.3,111
2016-06-30 13:10:03,27.2,13.0,14.2,32.6,2.3,112
2016-06-30 13:15:03,27.2,14.1,13.0,32.6,2.3,111
2016-06-30 13:20:03,26.8,13.4,13.4,32.6,2.3,112
2016-06-30 13:25:03,26.4,12.0,14.5,32.6,2.3,112
2016-06-30 13:30:03,26.5,12.6,14.0,32.6,2.3,111
2016-06-30 13:35:03,26.3,12.4,14.0,32.6,2.3,111
2016-06-30 13:40:03,26.0,11.8,14.1,32.6,2.3,111
2016-06-30 13:45:03,25.7,11.7,13.9,32.6,2.3,111
2016-06-30 13:50:03,25.5,12.0,13.5,32.6,2.3,112
2016-06-30 13:55:03,25.6,13.1,12.5,32.6,2.3,112
2016-06-30 14:00:03,26.1,12.5,13.6,32.6,2.3,111
2016-06-30 14:05:03,26.1,13.2,12.9,32.6,2.3,111
2016-06-30 14:10:03,25.8,12.3,13.5,32.6,2.3,112
2016-06-30 14:15:03,25.5,12.3,13.3,32.6,2.3,111
2016-06-30 14:20:03,25.5,12.8,12.7,32.6,2.3,112
2016-06-30 14:25:03,25.6,12.3,13.3,32.6,2.3,112
2016-06-30 14:30:03,26.0,11.9,14.1,32.6,2.3,111
2016-06-30 14:35:03,26.0,10.4,15.7,32.6,2.3,112
2016-06-30 14:40:03,26.3,11.6,14.7,32.6,2.3,111
2016-06-30 14:45:03,27.3,13.5,13.8,32.6,2.3,111
2016-06-30 14:50:03,28.4,11.8,16.6,32.6,2.3,112
2016-06-30 14:55:03,28.4,12.8,15.5,32.6,2.3,111
2016-06-30 15:00:03,27.7,12.8,14.9,32.6,2.3,111
2016-06-30 15:05:03,27.5,13.7,13.8,32.6,2.4,112
2016-06-30 15:10:03,27.5,13.0,14.5,32.6,2.4,111
2016-06-30 15:15:03,27.0,12.6,14.4,32.6,2.3,111
2016-06-30 15:20:03,26.3,11.6,14.6,32.6,2.3,111
2016-06-30 15:25:03,25.4,11.2,14.2,32.6,2.3,111
2016-06-30 15:30:03,24.9,12.3,12.6,32.5,2.3,112
2016-06-30 15:35:03,24.7,12.7,12.0,32.6,2.3,111
2016-06-30 15:40:03,24.6,12.5,12.2,32.6,2.5,111
2016-06-30 15:45:03,24.8,11.9,12.9,32.6,2.4,111
2016-06-30 15:50:03,25.5,12.8,12.7,32.6,2.3,112
2016-06-30 15:55:03,26.6,12.9,13.7,32.6,2.3,111
2016-06-30 16:00:03,26.9,11.1,15.8,32.6,2.3,112
2016-06-30 16:05:03,27.1,8.9,18.2,32.6,2.3,111
2016-06-30 16:10:03,26.5,10.6,15.9,32.6,2.3,111
2016-06-30 16:15:03,26.8,7.9,18.9,32.6,2.3,112
2016-06-30 16:20:03,27.5,9.8,17.7,32.6,2.3,111
2016-06-30 16:25:03,28.5,6.8,21.8,32.6,2.3,112
2016-06-30 16:30:03,29.4,7.8,21.6,32.6,2.3,111
2016-06-30 16:35:03,27.2,8.9,18.2,32.6,2.3,111
2016-06-30 16:40:03,25.7,10.5,15.3,32.6,2.3,111
2016-06-30 16:45:04,25.1,9.7,15.4,32.6,2.3,112
2016-06-30 16:50:04,26.0,7.5,18.5,32.6,2.3,111
2016-06-30 16:55:04,27.8,5.9,21.8,32.6,2.3,112
2016-06-30 17:00:04,28.8,5.6,23.2,32.6,2.3,111
2016-06-30 17:05:04,29.3,6.5,22.9,32.6,2.3,112
2016-06-30 17:10:04,29.3,6.5,22.8,32.6,2.3,111
2016-06-30 17:15:04,28.7,7.5,21.2,32.6,2.3,112
2016-06-30 17:20:04,27.4,7.7,19.7,32.5,2.3,112
2016-06-30 17:25:04,27.1,7.3,19.9,32.5,2.3,111
2016-06-30 17:30:04,24.9,8.8,16.1,32.5,2.4,112
2016-06-30 17:35:04,23.8,9.0,14.8,32.5,2.3,111
2016-06-30 17:40:04,23.6,8.7,15.0,32.6,2.3,112
2016-06-30 17:45:04,23.6,7.6,15.9,32.5,2.3,111
2016-06-30 17:50:04,23.3,7.8,15.5,32.5,2.2,111
2016-06-30 17:55:04,23.1,7.9,15.1,32.5,2.3,112
2016-06-30 18:00:04,22.8,7.7,15.1,32.5,2.3,111
2016-06-30 18:05:04,22.7,8.4,14.3,32.5,2.3,111
2016-06-30 18:10:04,22.1,8.2,13.9,32.5,2.3,111
2016-06-30 18:15:04,22.4,8.4,14.0,32.5,2.3,112
2016-06-30 18:20:04,22.4,9.2,13.2,32.5,2.3,112
2016-06-30 18:25:04,22.6,10.1,12.5,32.5,2.3,111
2016-06-30 18:30:04,23.4,8.8,14.6,32.6,2.3,112
2016-06-30 18:35:04,26.1,1.2,24.9,32.5,2.4,111
2016-06-30 18:40:04,26.7,7.2,19.5,32.6,2.3,111
2016-06-30 18:45:04,24.9,8.5,16.4,32.5,2.4,111
2016-06-30 18:50:04,23.6,11.5,12.1,32.5,2.3,112
2016-06-30 18:55:04,23.0,11.4,11.6,32.4,2.3,111
2016-06-30 19:00:04,22.7,11.4,11.2,32.2,2.3,112
2016-06-30 19:05:04,22.3,11.3,11.0,32.1,2.3,111
2016-06-30 19:10:04,22.1,11.5,10.6,32.0,2.4,111
2016-06-30 19:15:04,21.9,12.0,9.9,32.0,2.4,112
2016-06-30 19:20:04,21.9,11.6,10.2,32.2,2.3,110
2016-06-30 19:25:04,21.9,11.5,10.4,32.3,2.4,112
2016-06-30 19:30:04,21.9,11.3,10.6,32.0,2.3,112
2016-06-30 19:35:04,21.8,11.2,10.6,31.6,2.3,111
2016-06-30 19:40:04,21.6,11.5,10.2,31.2,2.3,111
2016-06-30 19:45:04,21.6,11.9,9.7,31.2,2.3,111
2016-06-30 19:50:04,21.5,11.4,10.1,31.6,2.3,111
2016-06-30 19:55:04,21.5,11.7,9.8,31.9,2.5,112
2016-06-30 20:00:04,21.4,10.5,10.9,31.8,3.8,111
2016-06-30 20:05:04,21.2,11.2,10.0,31.8,2.6,111
2016-06-30 20:10:04,21.1,11.2,9.9,31.5,2.4,112
2016-06-30 20:15:04,21.1,11.0,10.1,31.1,2.9,111
2016-06-30 20:20:04,21.0,11.2,9.8,31.6,2.5,112
2016-06-30 20:25:04,21.0,11.5,9.5,31.3,2.7,111
2016-06-30 20:30:04,21.1,11.5,9.6,30.7,2.6,111
2016-06-30 20:35:04,21.2,11.3,9.8,30.9,2.5,112
2016-06-30 20:40:04,21.2,11.4,9.8,30.5,2.8,111
2016-06-30 20:45:04,21.2,11.3,10.0,29.6,2.4,111
2016-06-30 20:50:04,21.2,11.3,9.9,29.4,2.3,112
2016-06-30 20:55:04,21.3,11.5,9.8,29.4,2.3,111
2016-06-30 21:00:04,21.4,10.9,10.5,30.5,2.3,111
2016-06-30 21:05:04,21.0,11.0,10.0,29.3,2.4,111
2016-06-30 21:10:04,21.3,10.8,10.5,27.8,2.4,111
2016-06-30 21:15:04,21.3,11.0,10.3,27.2,2.4,112
2016-06-30 21:20:04,20.9,10.8,10.2,26.5,2.4,111
2016-06-30 21:25:04,21.3,11.0,10.3,23.9,2.3,111
2016-06-30 21:30:04,21.3,11.1,10.2,21.4,2.3,112
2016-06-30 21:35:04,21.3,11.2,10.1,19.1,2.3,111
2016-06-30 21:40:04,21.3,11.1,10.2,13.4,2.3,111
2016-06-30 21:45:04,21.3,11.5,9.7,8.8,2.4,111
2016-06-30 21:50:04,21.3,11.4,9.9,5.4,2.5,112
2016-06-30 21:55:04,21.2,11.2,10.0,4.1,2.8,111
2016-06-30 22:00:04,21.2,9.5,11.7,3.2,21.5,111
2016-06-30 22:05:04,21.1,9.9,11.2,2.7,10.8,112
2016-06-30 22:10:04,21.0,11.9,9.2,1.7,12.5,111
2016-06-30 22:15:04,20.9,10.5,10.3,0.8,2.7,112
2016-06-30 22:20:04,20.7,11.4,9.3,0.4,2.4,111
2016-06-30 22:25:04,20.8,11.3,9.4,0.2,2.4,112
2016-06-30 22:30:04,20.8,11.5,9.3,0.2,2.5,111
2016-06-30 22:35:04,20.9,11.3,9.6,0.1,2.6,112
2016-06-30 22:40:04,20.9,11.5,9.5,0.1,2.6,111
2016-06-30 22:45:04,20.9,11.4,9.6,0.0,2.6,111
2016-06-30 22:50:04,20.9,10.9,10.0,0.0,2.9,112
2016-06-30 22:55:04,20.8,10.1,10.7,0.0,3.4,111
2016-06-30 23:00:04,20.8,10.2,10.6,0.0,3.7,111
2016-06-30 23:05:04,20.7,10.8,10.0,0.0,3.0,112
2016-06-30 23:10:04,20.7,10.5,10.2,0.0,2.8,111
2016-06-30 23:15:04,20.7,10.6,10.1,0.0,2.6,111
2016-06-30 23:20:04,20.6,11.0,9.6,0.0,2.4,112
2016-06-30 23:25:04,20.6,11.2,9.5,0.0,2.5,111
2016-06-30 23:30:04,20.7,10.6,10.1,0.0,5.7,111
2016-06-30 23:35:04,20.8,10.9,9.9,0.0,14.8,111
2016-06-30 23:40:04,20.8,12.5,8.3,0.0,4.6,112
2016-06-30 23:45:04,20.7,12.4,8.3,0.0,7.0,111
2016-06-30 23:50:04,20.7,12.1,8.6,0.0,6.0,111
2016-06-30 23:55:04,20.7,11.6,9.1,0.0,6.3,112
